Timeline UpdatesTrip UpdatesNews PostsPvt PostsTravel TipsAdmin PostsConv PostsFollowed PostsChat RequestsBlog PostsPNR Posts

Disclaimer
Search
 
 
Mon Sep 1, 2014 19:19:16 ISTHomeTrainsΣChainsAtlasPNRForumGalleryNewsFAQTripsMembersLoginFeedback
No Recent News for this Train
Other Trains in the News **new
Latest...
.
Sat Jan 26, 2013 (03:08PM)
⇐ Return Journey: Train# 59440

59439/Mumbai Central-Ahmedabad Passenger

OLD Time-Table. New TT will soon be available.
Feb 22 2014 (11:49PM)
Change Departure Station:
Change Arrival Station:
Post a Train Travel TipPost a Train Travel Tip **new
Post a Comment/Question/Picture/VideoPost a Comment/Question/Picture/Video
Pantry/Catering
✕ NO Pantry Car
✕ NO Catering
RSA - Rake Sharing
59439 and 59442 share rakes.
Rake/Coach Composition
LOCO-SLR-GEN-GEN-GEN-S3-S2-S1-LD-GEN-GEN-GEN-GEN-GEN-GEN-GEN-SLR
Loco
BL WCAM-1/BRC WAG-5A
News    PNR    Forum    Time-Table    Availability    Fare Chart    Map    Arr/Dep History    Trips    Gallery    ΣChains    X/O    Timeline    
Travel Time: 5h 11m    21 halts    Distance: 188 km    Avg Speed: 36 km/hr
Type: Passenger
Zone: WR/Western
Departs @ 12:15 (Avg 1m late)
Platform# 4
SMTWTFS
Mumbai Central/BCT 
Arrives @ 17:26 (Avg 12m late)
Platform# ???
SMTWTFS
Atul/ATUL 

21 halts. 42 intermediate Stations between Mumbai Central and Atul

Show ALL intermediate Stations  Show Old Time-Table

#CodeStation NameX/OArrivesAvgDepartsAvgHaltPFDay#KmSpeedElevZoneAddress
1BCT»Mumbai Central (9)»  -12:15+1410.0273mWRMumbai 400008, Maharashtra
2DDRMumbai Dadar Western (6)  12:28+412:30+72m515.9306mWRMumbai, Maharashtra
3ADHMumbai Andheri (9)  12:52+512:54+82m8117.13112mWRMumbai, Maharashtra
4BVIMumbai Borivali (8)X  13:18+713:20+112m6129.73519mWRMumbai - 400092, Maharashtra
5BSRVasai Road (7)  13:50+313:52+32m4147.1467mWRVasai 401202, Maharashtra
6VRVirar (8)X  14:03+414:05+42m3155.5466mWRDist. Palghar, Maharashtra
7VTNVaitarna (2)  14:16+414:18+42m1164.0673mWRDist. Palghar, Maharashtra
8SAHSaphale (2)X  14:25+714:27+62m1171.8778mWRDist. Palghar, Maharashtra
9KLVKelve Road (3)  14:32+814:34+82m2178.27210mWRDist. Palghar, Maharashtra
10PLGPalghar (3)X  14:41+714:43+72m1186.65619mWRPalghar, Maharashtra
11BORBoisar (3)XO  14:55+914:57+192m1197.91817mWRBoisar Tel.no-02525-266626, Maharashtra
12VGNVangaon (3)XO  15:28+215:30+52m--1107.35311mWRDist. Palghar, Maharashtra
13DRDDahanu Road (5)X  15:44+315:46+42m11119.66712mWRDahanu, Maharashtra
14GVDGholvad (4)  15:56+415:58+52m--1130.86114mWRGholvad, Maharashtra
15UBRUmbargam Road (3)XO  16:07+616:09+82m11139.92930mWRUmbergaon, Gujarat
16SJNSanjan (3)X  16:20+616:22+82m--1145.36322mWRSanjan, Gujarat
17BLDBhilad (3)  16:33+816:35+112m--1156.95833mWRBhilad, Gujarat
18KEBKarambeli (2)O  16:40+016:42+02m--1161.72429mWRNational Highway 8, Gujarat
19VAPIVapi (3)X  16:58+417:00+52m11168.15027mWRVapi, Gujarat
20BAGDBagwada (2)O  17:08-17:09-1m--1174.84322mWRNH8, Gujarat
21UVDUdvada (3)X  17:13+917:15+92m--1177.77218mWRUdvada, Gujarat
22PADPardi (3)X  17:20+1017:22+112m--1183.76019mWRValsad, Gujarat
23ATUL•Atul (3)•  17:26+1217:28+112m--1187.72922mWRValsad, Gujarat
24BLValsad (3)XO  17:42+518:00+418m21194.46715mWRValsad, Gujarat
25DGIDungri (3)  18:08+1018:10+122m11203.36120mWRNH 8, Gujarat
26JRSJoravasan (2)  18:15-18:17-2m11208.44015mWRJoravasan, Gujarat
27BIMBilimora Junction (4)XO  18:23+1018:25+182m--1212.31811mWRBilimora, Gujarat
28AMLAmalsad (3)  18:44+1118:46+122m--1217.94612mWRAmalsad, Gujarat
29ACLAncheli (2)  18:51-18:53-2m--1221.73420mWRNavsari, Gujarat
30VDHVedchha (3)XO  18:59+1119:01+182m--1225.12313mWRNavsari, Gujarat
31NVSNavsari (3)X  19:23+719:25+92m31233.55114mWRNavsari, Gujarat
32MRLMaroli (3)XO  19:35+1119:37+142m--1241.92715mWRMaroli, Gujarat
33SCHSachin (3)XO  19:52+919:54+92m11248.64911mWRKansad Road Sachin, Gujarat
34BHETBhestan (2)  20:01+1120:03+132m11254.32613mWRSurat, Gujarat
35UDNUdhna Junction (3)XO  20:14+1220:16+202m11259.1716mWRUdhna 394210, Gujarat
36STSurat (4)XO  20:49+521:09+420m21263.13919mWRSurat 395001, Gujarat
37URNUtran (3)  21:15+1321:17+122m--1267.06415mWRSurat, Gujarat
38KSEKosad (2)  21:20+1621:22+192m--1270.13717mWRSurat, Gujarat
39GTXGothangam (2)XO  21:28+2021:30+202m--1273.82019mWRAmroli Sayan Rd, Gujarat
40SYNSayan (3)O  21:39+1721:41+192m--1276.85421mWRSayan Satellite town, Gujarat
41KIMKim (2)  21:52+2021:54+202m--1286.75818mWRNH 8, Gujarat
42KSBKosamba Junction (3)X  22:02+1822:04+182m--1294.56630mWRKosamba, Gujarat
43HATHathuran (2)  22:08-22:10-2m--1298.94632mWRKosamba, Gujarat
44PAOPanoli (3)XO  22:15+2122:17+252m--1302.73629mWRPanoli, Gujarat
45AKVAnkleshwar Junction (4)  22:34+1522:36+152m21313.04019mWRAnkleshwar, Gujarat
46BHBharuch Junction (5)X  22:50+1222:52+142m31322.46619mWRBharuch, Gujarat
47NIUNabipur (3)X  23:03+2423:05+262m--1334.45824mWRNabipur, Gujarat
48VREVarediya (4)X  23:12+2723:14+292m--1341.26621mWRNH 8, Gujarat
49PLJPalej (4)O  23:20+3023:22+312m--1347.84429mWRPalej, Gujarat
50MYGMiyagam Karjan (2)  23:43+2423:45+242m21363.06329mWRKarjan, Gujarat
51ITAItola (4)  23:56+2923:58+282m--1374.62627mWRNational Highway 8 Vadodara, Gujarat
52BRCVadodara Junction (7)X  00:40+1400:50+1410m--2392.93136mWRVadodara 390005, Gujarat
53BJWBajva (3)X  01:04+3501:06+362m--2400.12338mWRVadodara, Gujarat
54RNORanoli (2)  01:16+3601:18+382m--2403.98339mWRVadodara District, Gujarat
55NDRNandesari (2)X  01:21-01:23-2m--2408.16042mWRNandesari, Gujarat
56VDAVasad Junction (3)O  01:28+3801:30+382m--2413.14640mWRVasad, Gujarat
57ADDAdas Road (4)X  01:36+3801:38+372m--2417.74142mWRNational Highway 8, Gujarat
58VXDVadod (3)X  01:44+3701:46+372m--2421.82444mWRAnand District, Gujarat
59ANNDAnand Junction (6)  02:03+2302:08+225m--2428.67444mWRAnand, Gujarat
60KBRVKanjari Boriyavi Junction (4)X  02:14+3202:16+312m--2436.14739mWRKanjari, Gujarat
61UTDUtarsanda (4)XO  02:23+3002:25+312m--2441.63340mWRUttarsanda, Gujarat
62NDNadiad Junction (4)XO  02:35+2302:43+208m--2447.16237mWRNadiad, Gujarat
63GTEGothaj (2)XO  02:52+2602:54+282m--2456.32832mWRState Highway 3, Gujarat
64MHDMahemdavad Kheda Road (4)X  03:12+1803:14+212m--2464.65037mWRMahemdavad, Gujarat
65NEPNenpur (2)X  03:19-03:21-2m--2468.83435mWRState Highway 3, Gujarat
66KANJKanij (3)  03:26+1903:28+212m--2471.73339mWRBareja-Barejadi Rd, Gujarat
67BJDBarejadi Nandej (3)XO  03:36+2103:38+212m--2476.01442mWRBareja-Barejadi Rd, Gujarat
68GERGeratpur (2)XO  03:52+1303:54+142m--2479.47944mWRAhmadabad, Gujarat
69VTAVatva (4)XO  03:58+2304:00+222m--2484.64849mWRDist. Ahmedabad 382445, Gujarat
70MANManinagar (2)O  04:06+004:08+02m12489.51150mWRAhmadabad, Gujarat
71ADIAhmedabad Junction (12)  04:25+7-42492.6-51mWRAhmedabad, Gujarat
Scroll to Top
Scroll to Bottom